Regional Weather Roundup
Issued by NWS

Home | Current Version | Previous Version | Graphics & Text | Print | Product List | Glossary On
Versions: 1 2 3 4 5 6 7 8 9 10 11 12 13 14 15 16 17 18 19 20 21 22 23 24 25 26 27 28 29 30 31 32 33 34 35 36 37 38 39 40 41 42 43 44 45 46 47 48 49 50
000
ASUS43 KLMK 262002
RWRKY
KENTUCKY REGIONAL WEATHER ROUNDUP
NATIONAL WEATHER SERVICE LOUISVILLE KY
400 PM EDT SUN APR 26 2015

NOTE "FAIR" INDICATES FEW OR NO CLOUDS BELOW 12,000 FEET
WITH NO SIGNIFICANT WEATHER AND/OR OBSTRUCTIONS TO VISIBILITY.

KYZ001>023-026-027-061>063-070>075-262100-
WESTERN AND SOUTH CENTRAL KENTUCKY

CITY           SKY/WX    TMP DP  RH WIND       PRES   REMARKS
PADUCAH        PTSUNNY   64  46  52 NE9       29.86S
HENDERSON      SUNNY     61  37  41 N10       29.86F
OWENSBORO      SUNNY     63  37  37 NE12G17   29.86S
HOPKINSVILLE   CLOUDY    56  47  72 NE7       29.84F
BOWLING GREEN  PTSUNNY   63  43  48 MISG      29.83S
GLASGOW        NOT AVBL
$$

KYZ024-025-028>034-038-045-046-053-262100-
NORTH CENTRAL KENTUCKY

CITY           SKY/WX    TMP DP  RH WIND       PRES   REMARKS
LOUISVILLE/SDF MOSUNNY   63  33  32 N15G22    29.83F
LOUISVILLE/LOU SUNNY     63  32  31 N9G20     29.84F
FORT KNOX      SUNNY     61  38  41 NE8       29.81F
$$

KYZ035>037-039>044-047>052-055>060-089>105-262100-
NORTHEAST KENTUCKY

CITY           SKY/WX    TMP DP  RH WIND       PRES   REMARKS
LEXINGTON      SUNNY     61  40  45 N14       29.81F
COVINGTON      MOSUNNY   59  34  39 N9G21     29.85S
FRANKFORT      SUNNY     62  33  33 N10       29.81F
$$

KYZ054-064>069-076>088-106>120-262100-
SOUTHEAST KENTUCKY

CITY           SKY/WX    TMP DP  RH WIND       PRES   REMARKS
JACKSON        MOSUNNY   61  35  37 MISG      29.77F
LONDON         CLOUDY    59  40  49 NE10G18   29.78F
SOMERSET       NOT AVBL
MIDDLESBORO    CLOUDY    53  46  76 N9        29.79S
MONTICELLO     MOCLDY    64  45  50 NW8       29.82F
$$



USA.gov is the U.S. government's official web portal to all federal, state and local government web resources and services.